www.pogodaiklimat.ru

Погода и климат >> Архив погоды >> Россия >> Новгородская область >> Боровичи


ПОГОДА в Боровичах

  • Прогноз погоды в Боровичах
  • Монитор погоды в Боровичах
  • Климат города

АРХИВ ПОГОДЫ в Боровичах

Время (UTC), дата Ветер
(напр.,м/с)
 
Видим.   Явления Облачность Т
(С)
Тd
(С)
f
(%)
Тe
(С)
Тes
(С)
Комфортность P
(гПа)
Po
(гПа)
Тmin
(С)
Tmax
(С)
R
(мм)
R24
(мм)
S
(см)
00 15.02 В 1 20 км ясно -12.0 -13.4 89 -14 -14 1033.6 1021.7
03 15.02 ЮВ 1 20 км ясно -14.5 -16.0 88 -17 -17 1034.1 1022.0 -14.5
06 15.02 ЮВ 1 20 км ясно -15.8 -17.6 86 -18 -18 1034.8 1022.7 -17.3 28
09 15.02 ЮВ 2 20 км 3/0
[Cc]
-10.0 -13.3 77 -14 -12 1035.0 1023.1
12 15.02 ЮВ 2 20 км 8/4 300 м
[Sc Ac As]
-7.0 -11.1 73 -11 -11 1033.9 1022.2
15 15.02 ЮВ 1 20 км 8/4 600 м
[Sc Ac As]
-6.7 -10.3 76 -9 -9 1033.2 1021.5
18 15.02 ЮВ 2 20 км 6/3 600 м
[Sc Ac As]
-7.8 -10.7 80 -12 -12 1032.8 1021.1 -6.5
21 15.02 ЮВ 2 20 км 10/8 600 м
[Sc Ac und]
-7.6 -10.3 81 -12 -12 1031.8 1020.1
00 16.02 ЮВ 1 4000 м слабый ливневой снег 10/8 300 м
[Cb calv Ac und]
-7.6 -9.3 88 -10 -10 1031.1 1019.4
03 16.02 ЮВ 2 4000 м слабый ливневой снег 10/8 300 м
[Cb calv Ac und]
-7.3 -8.9 88 -12 -12 1029.9 1018.3 -7.8 2
06 16.02 Ю 2 10 км слабый ливневой снег 10/10 540 м
[Cb calv]
-6.8 -8.3 89 -11 -11 1029.2 1017.6 -7.8 3 31
09 16.02 Ю 2 10 км слабый ливневой снег 9/3 300 м
[Cb calv Ac trans Ci fib]
-4.7 -7.8 79 -9 -8 1028.9 1017.4
12 16.02 Ю 2 20 км {ливн. осадки} 9/4 600 м
[Sc Ac trans Ci fib]
-3.6 -7.5 74 -8 -7 1028.3 1016.8
15 16.02 ЮВ 1 20 км 9/4 300 м
[Sc Ac trans Ci fib]
-4.6 -6.8 85 -7 -7 1027.5 1016.0 1
18 16.02 ЮВ 1 10 км слабый ливневой снег 9/6 300 м
[Cb calv Ac trans]
-4.3 -6.1 87 -7 -7 1026.6 1015.1 -3.3 0.0
21 16.02 ЮВ 1 10 км слабый ливневой снег 10/10 570 м
[Cb calv]
-4.5 -6.3 87 -7 -7 1026.0 1014.5
00 17.02 ЮВ 1 10 км слабый ливневой снег 10/8 300 м
[Cb calv Ac und]
-5.2 -6.7 89 -8 -8 1025.3 1013.8
03 17.02 ЮВ 1 10 км слабый ливневой снег 6/6 300 м
[Cb calv]
-5.9 -7.4 89 -8 -8 1024.3 1012.7 -5.9 0.7
06 17.02 ЮВ 1 10 км слабый ливневой снег 9/9 930 м
[Cb calv]
-5.4 -7.1 88 -8 -8 1023.6 1012.0 -6.1 1 32
09 17.02 ЮВ 1 10 км слабый ливневой снег 10/8 300 м
[Cb calv Ac As]
-3.3 -5.9 82 -6 -5 1022.5 1011.1
12 17.02 ЮВ 2 10 км слабый ливневой снег 10/6 300 м
[Cb calv Ac As]
-2.2 -4.2 86 -6 -6 1021.7 1010.3
15 17.02 ЮВ 1 10 км слабый ливневой снег 10/10 600 м
[Cb calv]
-2.3 -3.8 89 -5 -5 1021.1 1009.7 2
18 17.02 ЮВ 1 10 км слабый ливневой снег 10/10 720 м
[Cb calv]
-2.7 -4.3 89 -5 -5 1020.9 1009.5 -1.7 2
21 17.02 ЮВ 1 10 км слабый ливневой снег 10/8 300 м
[Cb calv Ac As]
-3.5 -5.0 89 -6 -6 1020.6 1009.2
00 18.02 ЮВ 1 10 км слабый ливневой снег 10/10 240 м
[Cb calv]
-4.3 -5.6 91 -7 -7 1020.4 1009.0
03 18.02 В 1 10 км слабый ливневой снег 10/10 210 м
[Cb calv]
-5.8 -6.7 93 -8 -8 1020.0 1008.5 -5.8 1
06 18.02 В 1 10 км слабый ливневой снег 10/8 800 м
[Cb calv Ac As]
-6.5 -7.5 93 -9 -9 1020.0 1008.5 -6.9 0.9 33
09 18.02 В 1 10 км слабый ливневой снег 9/8 450 м
[Cb calv Ac As]
-4.2 -6.4 85 -7 -6 1019.4 1008.0
12 18.02 штиль 0 4000 м слабый ливневой снег 9/8 300 м
[Cb calv Ac As]
-2.8 -5.1 84 -4 -4 1018.7 1007.3
15 18.02 В 1 4000 м слабый ливневой снег 10/10 300 м
[Cb calv]
-3.8 -5.2 90 -6 -6 1018.5 1007.1 3
18 18.02 В 1 10 км слабый ливневой снег 10/10 330 м
[Cb calv]
-4.8 -6.2 90 -7 -7 1018.4 1007.0 -2.6 3
21 18.02 штиль 0 20 км {ливн. осадки} ясно -8.8 -9.8 92 -9 -9 1018.4 1006.8
00 19.02 штиль 0 10 км слабый ливневой снег 10/10 330 м
[Cb calv]
-8.9 -9.9 92 -10 -10 1018.2 1006.6
03 19.02 штиль 0 10 км слабый ливневой снег 9/5 300 м
[Cb calv Ac trans]
-11.0 -12.3 90 -11 -11 1018.3 1006.6 -11.2 1
06 19.02 штиль 0 10 км слабый ливневой снег 8/3 300 м
[Cb calv Ac trans Ci fib]
-10.5 -11.7 91 -11 -11 1018.6 1006.9 -11.2 1 36
09 19.02 СЗ 1 10 км слабый ливневой снег 9/3 300 м
[Cb calv Ac As Ci fib]
-6.6 -8.1 89 -9 -8 1018.3 1006.8
12 19.02 СЗ 2 4000 м слабый ливневой снег 9/5 300 м
[Cb calv Ac As Ci fib]
-4.5 -7.0 83 -9 -8 1019.1 1007.7
15 19.02 СЗ 1 4000 м слабый ливневой снег 10/6 300 м
[Cb calv Ac und]
-4.9 -6.1 91 -7 -7 1020.0 1008.5 1
18 19.02 СЗ 2 10 км слабый ливневой снег 10/10 480 м
[Cb calv]
-6.0 -7.0 93 -10 -10 1020.3 1008.8 -4.2 1
21 19.02 СЗ 1 10 км слабый ливневой снег 10/10 800 м
[Cb calv]
-7.0 -7.8 94 -9 -9 1020.2 1008.7
00 20.02 СЗ 1 4000 м слабый ливневой снег 10/10 600 м
[Cb calv]
-7.3 -8.2 93 -10 -10 1020.5 1008.9
03 20.02 СЗ 1 4000 м слабый ливневой снег 10/10 300 м
[Cb calv]
-8.2 -9.2 92 -11 -11 1020.6 1009.0 -8.5 1
06 20.02 СЗ 2 20 км {ливн. осадки} 1/0
[Ac trans]
-10.5 -11.9 89 -15 -15 1021.4 1009.7 -10.5 1 37
09 20.02 СЗ 3 20 км 9/3 600 м
[Sc Ac trans]
-8.4 -11.4 79 -14 -13 1022.0 1010.4
12 20.02 СЗ 5 10 км слабый ливневой снег 5/5 300 м
[Cb calv]
-7.3 -12.0 69 -15 -14 1021.9 1010.3
15 20.02 СЗ 3 10 км слабый ливневой снег 6/5 300 м
[Cb calv Ac trans]
-9.1 -12.6 76 -15 -15 1022.9 1011.2 0.0
18 20.02 СЗ 1 20 км {ливн. осадки} 8/8 930 м
[Sc]
-12.6 -13.8 91 -15 -15 1023.8 1012.0 -6.8 0.0
21 20.02 СЗ 1 20 км ясно -14.8 -16.3 88 -17 -17 1024.1 1012.2
00 21.02 штиль 0 20 км ясно -19.3 -21.3 84 -19 -19 1025.1 1013.0
03 21.02 С 1 20 км 1/0
[Ac trans]
-21.5 -23.9 81 -25 -25 1025.9 1013.6 -21.5 0.0
06 21.02 С 1 20 км 9/9 1260 м
[Sc]
-17.4 -19.5 84 -20 -20 1025.9 1013.8 -21.6 36
09 21.02 С 1 20 км 9/6 1000 м
[Sc Ac trans]
-12.7 -14.9 84 -15 -14 1026.1 1014.3
12 21.02 СЗ 3 20 км 9/9 930 м
[Sc]
-8.0 -14.5 59 -14 -13 1026.1 1014.5
15 21.02 СЗ 1 20 км 8/8 720 м
[Sc]
-9.4 -13.4 73 -12 -12 1026.4 1014.6
18 21.02 СЗ 1 20 км 4/0
[Ac trans]
-15.0 -16.4 89 -18 -18 1027.5 1015.5 -7.2
21 21.02 штиль 0 20 км ясно -19.7 -21.7 84 -20 -20 1028.8 1016.6

 

Местоположение метеостанции Боровичи (Новгородская область, Россия): широта 58.42 долгота 33.90 высота над уровнем моря 89 м.

В архиве по умолчанию представлена погода в Боровичах за последнюю неделю. Архивные данные за месяц целиком и за предыдущие месяцы, начиная с января 2011 года, Вы можете получить, выбрав интересующий диапазон дат из раскрывающегося списка и нажав кнопку "Ввод!".

Внимание! Время в таблицах - всемирное. Для получения местного времени необходимо прибавить поправку, которая в Боровичах равна 3 ч.

Смотрите также архив погоды в соседних городах и на ближайших метеорологических станциях:

Погода в Бологом (Тверская область, Россия) (61 км)
Погода в Валдае (Новгородская область, Россия) (61 км)
Погода в Охонах (Новгородская область, Россия) (79 км)
Погода в Крестцах (Новгородская область, Россия) (82 км)
Погода в Удомле (Тверская область, Россия) (89 км)
Погода в Вышнем Волочке (Тверская область, Россия) (106 км)
Погода в Демянске (Новгородская область, Россия) (120 км)
Погода в Ефимовской (Ленинградская область, Россия) (129 км)
Погода в Максатихе (Тверская область, Россия) (136 км)
Погода в Тихвине (Ленинградская область, Россия) (138 км)

Пояснения к столбцам:

Ветер - указаны скорость ветра в м/с - средняя за 10 мин, порывы в срок и между сроками (в фигурных скобках) и направление, откуда дует ветер: С - северный, СВ - северо-восточный, В - восточный, ЮВ - юго-восточный, Ю - южный, ЮЗ - юго-западный, З - западный, СЗ - северо-западный.
Видимость - горизонтальная дальность видимости в метрах или километрах. При видимости от 1 до 10 км при отсутствии осадков обычно наблюдается дымка, при ухудшении видимости до 1 км и менее - туман. В сухую погоду видимость может ухудшаться дымом, пылью или мглою.
Явления - указаны атмосферные явления, наблюдавшиеся в срок или в последний час перед сроком; фигурными скобками обозначены явления, наблюдавшиеся между сроками (за 1-3 часа до срока); квадратными скобками обозначены град или гололедные отложения с указанием их диаметра в мм.
Облачность - указаны через наклонную черту общая и нижняя облачность в баллах и высота нижней границы облаков в метрах; квадратными скобками обозначены формы облаков: Ci - перистые, Cs - перисто-слоистые, Cc - перисто-кучевые, Ac - высококучевые, As - высокослоистые, Sc - слоисто-кучевые, Ns - слоисто-дождевые, Cu - кучевые, Cb - кучево-дождевые. Подробнее классификацию облаков см. в Атласе облаков (PDF).
T - Температура воздуха - температура, измеренная на высоте 2 м над землей.
Td - Температура точки росы - температура, при понижении до которой содержащийся в воздухе водяной пар достигнет насыщения.
f - Относительная влажность воздуха - влажноcть воздуха, измеренная на высоте 2 м над землей.
Te - Эффективная температура - температура, которую ощущает одетый по сезону человек в тени. Характеристика душности погоды. При расчете учитывается влияние влажности воздуха и скорости ветра на теплоощущения человека.
Tes - Эффективная температура на солнце - температура, которую ощущает человек, с поправкой на солнечный нагрев. Характеристика знойности погоды. Зависит от высоты солнца над горизонтом, облачности и скорости ветра. Ночью, в пасмурную погоду, а также при ветре 12 м/с и более поправка равна нулю.
P - Атмосферное давление - приведенное к уровню моря атмосферное давление.
Po - Атмосферное давление - измеренное на уровне метеостанции атмосферное давление.
Tmin - Минимальная температура - минимум температуры воздуха на высоте 2 м над землей.
Tmax - Максимальная температура - максимум температуры воздуха на высоте 2 м над землей.
R - Количество осадков - Количество выпавших осадков за период времени, мм. При наведении курсора мыши на число - период времени, за который выпало указанное количество осадков.
R24 - Количество осадков - Количество выпавших осадков за 24 часа, мм.
S - Снежный покров - Высота снежного покрова, см. При наведении курсора мыши на число - состояние снежного покрова и степень покрытия местности в баллах.